sat.trackr.live / text

‹ back to catalog

STARLINK-36716

NORAD 67699 · 2026-025G

PAYLOAD ACTIVE UNKNOWN

§ Identity

Operator
Country
US
Launch date
2026-02-07
Launch site
AFWTR
Launch vehicle
Mass (kg)
RCS (m²)

Purposes: comms

External: N2YO · Heavens-Above · Gunter

§ Orbital elements

Epoch: 2026-05-24T19:23:31.121376Z

Period
93.91 min
Inclination
97.2839°
Eccentricity
0.0000911
Mean motion
15.33449748 rev/d
Perigee alt
464.9 km
Apogee alt
466.2 km
Semi-major
6,843.7 km
B*
4.6164e-4
RAAN
256.3618°
Arg perigee
90.5559°
Mean anomaly
269.5788°
Rev number
1,768

§ Raw data

STARLINK-367161 67699U 26025G   26144.80799909  .00014860  00000+0  46164-3 0  99922 67699  97.2839 256.3618 0000911  90.5559 269.5788 15.33449748 17687

JSON: /api/v1/satellites/67699 · /tle

For live sub-satellite position, see the globe view (requires WebGL).

§ Visibility from observer

Set your observer location to see the next 7 days of passes ≥ 10°. The values pass through the URL so the page stays shareable.

No JS? Fill the form by hand. The geolocation button needs JavaScript.